Skip Page Navigation
NASA JPL Caltech
NASA Logo - Jet Propulsion Laboratory + View the NASA Portal
+ Center for Near-Earth Object Studies
JPL Home Earth Solar System Stars & Galaxies Technology
JPL Solar System Dynamics
BODIES ORBITS EPHEMERIDES TOOLS PHYSICAL DATA DISCOVERY FAQ SITE MAP
JPL Small-Body Database Browser
Search: [ help ]  
413252 (2003 SM322)
Classification: Main-belt Asteroid          SPK-ID: 2413252
Ephemeris | Orbit Diagram | Orbital Elements | Mission Design | Physical Parameters | Discovery Circumstances | Close-Approach Data ]

[ show orbit diagram ]
Orbital Elements at Epoch 2459000.5 (2020-May-31.0) TDB
Reference: JPL 13 (heliocentric ecliptic J2000)
 Element Value Uncertainty (1-sigma)   Units 
e .2386382220901418 1.2293e-07  
a 3.115424318322769 4.0117e-08 au
q 2.371964997941832 3.9797e-07 au
i 13.19861883265277 9.7411e-06 deg
node 286.671200186147 3.0299e-05 deg
peri 46.37535420668766 3.4101e-05 deg
M 45.71163421370542 1.2889e-05 deg
tp 2458745.465765227826
(2019-Sep-18.96576523)
7.0862e-05 TDB
period 2008.511095638209
5.50
3.8796e-05
1.062e-07
d
yr
n .1792372473230521 3.4621e-09 deg/d
Q 3.858883638703707 4.9691e-08 au
  Orbit Determination Parameters
   # obs. used (total)      230  
   data-arc span      5874 days (16.08 yr)  
   first obs. used      2003-09-29  
   last obs. used      2019-10-29  
   planetary ephem.      DE431  
   SB-pert. ephem.      SB431-N16  
   condition code      0  
   norm. resid. RMS      .51873  
   source      ORB  
   producer      Otto Matic  
   solution date      2019-Nov-08 14:35:32  

Additional Information
 Earth MOID = 1.38211 au 
 Jupiter MOID = 1.60774 au 
 T_jup = 3.133 
[ show covariance matrix ]

Ephemeris | Orbit Diagram | Orbital Elements | Mission Design | Physical Parameters | Discovery Circumstances | Close-Approach Data ]

Physical Parameter Table
Parameter Symbol Value Units Sigma Reference Notes
absolute magnitude H 15.7   n/a MPO495097  
diameter diameter 5.470 km 1.466 urn:nasa:pds:neowise_diameters_albedos::2.0[mainbelt] (http://adsabs.harvard.edu/abs/2011ApJ...741...68M)  
geometric albedo albedo 0.045   0.032 urn:nasa:pds:neowise_diameters_albedos::2.0[mainbelt] (http://adsabs.harvard.edu/abs/2011ApJ...741...68M)  

413252 (2003 SM322)          Discovered 2003-Sep-29 by LONEOS at Anderson Mesa
Reference: Last Updated: 2014-11-10

[ show close-approach data ]
Ephemeris | Orbit Diagram | Orbital Elements | Mission Design | Physical Parameters | Discovery Circumstances | Close-Approach Data ]
ABOUT SSD CREDITS/AWARDS PRIVACY/COPYRIGHT GLOSSARY LINKS
FirstGov 2020-Aug-05 05:44 UT
(server date/time)  
NASA Home Page
Site Manager:   Ryan S. Park
Webmaster  Alan B. Chamberlin